User: anonymous
Location: Unspecified
(0.0000°N, 0.0000°E)
Time: 08:40:56
(UTC+02:00)
Language:

Cosmos 1892 Rocket - Orbit

View from above orbital plane
View from above orbital plane
View from above satellite
View from above satellite

Ground track
Ground track

The orbit data is extracted from the following two-line orbital elements,

1 18422U 87088B   14106.80259405  .00000436  00000-0  51458-4 0  2110
2 18422 082.5131 181.0402 0018250 290.4435 209.0248 14.82335769430312
Epoch (UTC): 16 April 2014 19:15:44
Eccentricity: 0.0018250
inclination: 82.5131°
perigee height: 609 km
apogee height: 635 km
right ascension of ascending node: 181.0402°
argument of perigee: 290.4435°
revolutions per day: 14.82335769
mean anomaly at epoch: 209.0248°
orbit number at epoch: 43031

The dashed part of the orbit path shows where the satellite is in the earth's shadow,  

DLR